Weather in Rusanovo

Russia / Voronezh Oblast     51°42′49″N   41°28′18″E
temp.,
°C
wind,
m/s
gust,
m/s
humid.,
%
clouds,
%
prec.,
mm/h
press.,
hPa
HPBL,
m
27 february, sat
sat2700:00+2wnw51295100 0.1 1007381
03:00+1w61294100 0.1 1008405
06:00+1w61493100 0.0 1006565
09:00+1wnw71396100 0.1 1006660
12:00+1w7139797 0.0 1005747
15:00+1wnw8159397 0.1 1006818
18:00−4nnw8138395 0.3 1008780
21:00−7nnw6118690 0.3 1011543
28 february, sun
sun2800:00−8nnw598885 0.0 1012486
03:00−9nw488964 0.0 1014410
06:00−9nw48890 0.0 1015374
09:00−9nw47896 0.0 1016392
12:00−6nw358594 0.0 1016502
15:00−5nw358597 0.1 1016531
18:00−6nw2693100 0.1 1016372
21:00−6n239592 0.1 1019103
1 march, mon
mon100:00−8nne239473 0.0 1020104
03:00−9nne229465 0.0 102168
06:00−10n22944 0.0 102240
09:00−8nnw129114 0.0 1025144
12:00−5nnw238275 0.0 1025402
15:00−3nw248281 0.0 1026541
18:00−4wnw358990 0.0 1025156
21:00−3wsw379095 0.0 1025272
2 march, tue
tue200:00−3wsw51089100 0.0 1023462
03:00−3wsw61388100 0.0 1020458
06:00−2wsw71494100 0.1 1017584
09:00−1w81596100 0.7 1014682
12:00+1w81298100 0.8 1012679
15:00+1wnw6119299 0.9 1011719
18:00−1nw5129060 0.1 1011395
21:00−1wnw6129049 0.1 1013520
3 march, wed
wed300:00−1nw6139499 0.3 1013613
03:00−2nw5129292 0.3 1013462
06:00−3nw512925 0.0 1014435
09:00−2nw6119046 0.1 1015814
12:00−1nw71084100 0.1 1016972
15:00−1nw6108196 0.2 1017862
18:00−2nw6118794 0.1 1018760
21:00−2nw598497 0.1 1020688